CAPE
9 11 0 3 7 4 0 7 5 10 17 24 8 16 28 20 30 15 3 10 6 5 14 9 20 9 14 7 19 15 4 6 15 7 20 41 39 37 23 9 8 0 15
1 7 0 8 3 0 13 11 0 4 11 16 5 26 12 14 16 17 7 7 8 2 6 3 6 7 7 9 10 3 10 4 0 7 27 27 26 24 34 32 8 7 11
0 1 0 4 7 0 12 5 8 5 7 18 14 9 7 10 7 10 6 9 3 10 9 9 9 6 2 2 5 8 10 8 0 12 7 5 13 18 16 14 23 18 6
0 0 0 0 5 0 7 3 0 2 7 10 12 12 10 7 3 7 7 7 7 9 9 8 9 2 0 0 0 4 9 0 0 3 3 0 2 31 18 17 14 12 15
0 0 0 0 3 0 1 2 1 1 5 2 16 6 1 4 4 4 4 7 5 6 10 7 4 5 0 0 0 0 0 0 0 0 1 5 9 4 21 32 7 9 49
0 0 0 0 5 2 0 3 3 0 0 9 5 5 4 4 4 5 6 4 4 5 4 4 5 2 0 0 0 0 0 0 0 0 1 6 22 39 27 26 24 33 29
0 0 0 2 1 2 1 2 2 0 0 6 1 2 0 2 2 1 1 0 3 1 1 3 4 0 0 0 0 0 0 0 0 0 8 14 7 28 40 26 29 25 27
0 0 0 0 1 7 1 2 0 0 0 0 2 1 0 0 0 1 0 0 3 0 0 0 0 0 0 0 0 0 0 0 0 0 1 23 26 28 20 30 25 20 16
0 0 0 0 0 0 2 0 0 0 0 0 0 0 0 0 0 0 0 0 1 0 0 0 0 0 0 0 0 0 0 0 0 0 0 2 19 28 30 10 29 34 30
0 0 0 0 0 0 0 0 0 0 0 0 0 0 0 0 0 0 0 0 0 0 0 0 0 0 0 0 0 0 0 0 0 0 0 2 18 17 15 17 23 21 26
0 0 0 0 0 0 0 0 0 0 0 0 0 0 0 0 0 0 0 0 0 0 0 0 0 0 0 0 0 0 0 0 0 0 0 0 4 15 12 8 4 7 22
0 0 0 0 0 0 0 0 0 0 0 0 0 0 0 0 0 0 0 0 0 0 0 0 0 0 0 0 0 0 0 0 0 0 0 0 0 3 3 10 9 5 20
0 0 0 0 0 0 0 0 0 0 0 0 0 0 0 0 0 0 0 0 0 0 0 0 0 0 0 0 0 0 0 0 0 0 0 0 0 0 1 0 2 4 7
0 0 0 0 0 0 0 0 0 0 0 0 0 0 0 0 0 0 0 0 0 0 0 0 0 0 0 0 0 0 0 0 0 0 0 0 0 0 0 0 1 0 4
0 0 0 0 0 0 0 0 0 0 0 0 0 0 0 0 0 0 0 0 0 0 0 0 0 0 0 0 0 0 0 0 0 0 0 0 0 0 0 0 0 0 0
0 0 0 0 0 0 0 0 0 0 0 0 0 0 0 0 0 0 0 0 0 0 0 0 0 0 0 0 0 0 0 0 0 0 0 0 0 0 0 0 0 0 0
0 0 0 0 0 0 0 0 0 0 0 0 0 0 0 0 0 0 0 0 0 0 0 0 0 0 0 0 0 0 0 0 0 0 0 0 0 0 0 0 0 0 0
0 0 0 0 0 0 0 0 0 0 0 0 0 0 0 0 0 0 0 0 0 0 0 0 0 0 0 0 0 0 0 0 0 0 0 0 0 0 0 0 0 0 0
0 0 0 0 0 0 0 0 0 0 0 0 0 0 0 0 0 0 0 0 0 0 0 0 0 0 0 0 0 0 0 0 0 0 0 0 0 0 0 0 0 0 0
0 0 0 0 0 0 0 0 0 0 0 0 0 0 0 0 0 0 0 0 0 0 0 0 0 0 0 0 0 0 0 0 0 0 0 0 0 0 0 0 0 0 0
0 0 0 0 0 0 0 0 0 0 0 0 0 0 0 0 0 0 0 0 0 0 0 0 0 0 0 0 0 0 0 0 0 0 0 0 0 0 0 0 0 0 0
0 0 0 0 0 0 0 0 0 0 0 0 0 0 0 0 0 0 0 0 0 0 0 0 0 0 0 0 0 0 0 0 0 0 0 0 0 0 0 0 0 0 0
0 0 0 0 0 0 0 0 0 0 0 0 0 0 0 0 0 0 0 0 0 0 0 0 0 0 0 0 0 0 0 0 0 0 0 0 0 0 0 0 0 0 0
0 0 0 0 0 0 0 0 0 0 0 0 0 0 0 0 0 0 0 0 0 0 0 0 0 0 0 0 0 0 0 0 0 0 0 0 0 0 0 0 0 0 0
0 0 0 0 0 0 0 0 0 0 0 0 0 0 0 0 0 0 0 0 0 0 0 0 0 0 0 0 0 0 0 0 0 0 0 0 0 0 0 0 0 0 0
0 0 0 0 0 0 0 0 0 0 0 0 0 0 0 0 0 0 0 0 0 0 0 0 0 0 0 0 0 0 0 0 0 0 0 0 0 0 0 0 0 0 0
CIN
-1 -0 -0 -0 -0 -0 -0 -0 -0 -1 -0 -0 -0 -0 -0 -0 -0 -1 -0 -0 -0 -0 -1 -0 -1 -0 -0 -0 -0 -0 -1 -0 -0 -0 -0 -0 -0 -0 -0 -1 -1 -0 -0
-0 -0 -0 -0 -0 -0 -0 -1 -0 -0 -0 -0 -0 -1 -0 -0 -0 -1 -0 -0 -1 -0 -1 -0 -0 -0 -0 -0 -1 -3 -0 -0 -0 -0 -7 -0 -0 -0 -0 -1 -0 -0 -0
-0 -0 -0 -1 -0 -0 -0 -1 -0 -1 -0 -0 -0 -1 -1 -0 -0 -1 -0 -0 -0 -0 -0 -0 -0 -1 -1 -1 -1 -0 -0 -0 -0 -1 -1 -15 -1 -0 -0 -1 -0 -0 -1
-0 -0 -0 -0 -0 -0 -1 -0 -0 -0 -1 -1 -0 -0 -0 -0 -0 -0 -0 -0 -0 -1 -0 -0 -1 -0 -0 -0 -0 -0 -0 -0 -0 -0 -3 -4 -8 -0 -0 -1 -0 -1 -0
-0 -0 -0 -0 -0 -0 -0 -0 -0 -0 -1 -0 -2 -0 -1 -0 -1 -0 -0 -0 -1 -0 -0 -0 -1 -0 -0 -0 -0 -0 -0 -0 -0 -0 -0 -1 -4 -1 -0 -0 -0 -0 -0
-0 -0 -0 -0 -1 -0 -0 -0 -1 -0 -0 -2 -0 -0 -0 -1 -0 -0 -0 -1 -1 -1 -0 -0 -0 -0 -0 -0 -0 -0 -0 -0 -0 -0 -0 -0 -4 -0 -0 -0 -1 -0 -0
-0 -0 -0 -0 -0 -1 -0 -0 -0 -0 -0 -0 -0 -0 -0 -0 -0 -0 -0 -0 -1 -0 -0 -0 -1 -0 -0 -0 -0 -0 -0 -0 -0 -0 -0 -2 -2 -0 -0 -0 -0 -0 -0
-0 -0 -0 -0 -0 -0 -0 -0 -0 -0 -0 -0 -0 -0 -0 -0 -0 -0 -0 -0 -0 -0 -0 -0 -0 -0 -0 -0 -0 -0 -0 -0 -0 -0 -0 -4 -1 -0 -0 -1 -0 -0 -0
-0 -0 -0 -0 -0 -0 -0 -0 -0 -0 -0 -0 -0 -0 -0 -0 -0 -0 -0 -0 -0 -0 -0 -0 -0 -0 -0 -0 -0 -0 -0 -0 -0 -0 -0 -1 -2 -0 -0 -1 -0 -0 -0
-0 -0 -0 -0 -0 -0 -0 -0 -0 -0 -0 -0 -0 -0 -0 -0 -0 -0 -0 -0 -0 -0 -0 -0 -0 -0 -0 -0 -0 -0 -0 -0 -0 -0 -0 -0 -1 -2 -1 -1 -2 -0 -1
-0 -0 -0 -0 -0 -0 -0 -0 -0 -0 -0 -0 -0 -0 -0 -0 -0 -0 -0 -0 -0 -0 -0 -0 -0 -0 -0 -0 -0 -0 -0 -0 -0 -0 -0 -0 -0 -0 -0 -1 -0 -0 -0
-0 -0 -0 -0 -0 -0 -0 -0 -0 -0 -0 -0 -0 -0 -0 -0 -0 -0 -0 -0 -0 -0 -0 -0 -0 -0 -0 -0 -0 -0 -0 -0 -0 -0 -0 -0 -0 -0 -1 -1 -0 -0 -1
-0 -0 -0 -0 -0 -0 -0 -0 -0 -0 -0 -0 -0 -0 -0 -0 -0 -0 -0 -0 -0 -0 -0 -0 -0 -0 -0 -0 -0 -0 -0 -0 -0 -0 -0 -0 -0 -0 -0 -0 -1 -0 -0
-0 -0 -0 -0 -0 -0 -0 -0 -0 -0 -0 -0 -0 -0 -0 -0 -0 -0 -0 -0 -0 -0 -0 -0 -0 -0 -0 -0 -0 -0 -0 -0 -0 -0 -0 -0 -0 -0 -0 -0 -0 -0 -0
-0 -0 -0 -0 -0 -0 -0 -0 -0 -0 -0 -0 -0 -0 -0 -0 -0 -0 -0 -0 -0 -0 -0 -0 -0 -0 -0 -0 -0 -0 -0 -0 -0 -0 -0 -0 -0 -0 -0 -0 -0 -0 -0
-0 -0 -0 -0 -0 -0 -0 -0 -0 -0 -0 -0 -0 -0 -0 -0 -0 -0 -0 -0 -0 -0 -0 -0 -0 -0 -0 -0 -0 -0 -0 -0 -0 -0 -0 -0 -0 -0 -0 -0 -0 -0 -0
-0 -0 -0 -0 -0 -0 -0 -0 -0 -0 -0 -0 -0 -0 -0 -0 -0 -0 -0 -0 -0 -0 -0 -0 -0 -0 -0 -0 -0 -0 -0 -0 -0 -0 -0 -0 -0 -0 -0 -0 -0 -0 -0
-0 -0 -0 -0 -0 -0 -0 -0 -0 -0 -0 -0 -0 -0 -0 -0 -0 -0 -0 -0 -0 -0 -0 -0 -0 -0 -0 -0 -0 -0 -0 -0 -0 -0 -0 -0 -0 -0 -0 -0 -0 -0 -0
-0 -0 -0 -0 -0 -0 -0 -0 -0 -0 -0 -0 -0 -0 -0 -0 -0 -0 -0 -0 -0 -0 -0 -0 -0 -0 -0 -0 -0 -0 -0 -0 -0 -0 -0 -0 -0 -0 -0 -0 -0 -0 -0
-0 -0 -0 -0 -0 -0 -0 -0 -0 -0 -0 -0 -0 -0 -0 -0 -0 -0 -0 -0 -0 -0 -0 -0 -0 -0 -0 -0 -0 -0 -0 -0 -0 -0 -0 -0 -0 -0 -0 -0 -0 -0 -0
-0 -0 -0 -0 -0 -0 -0 -0 -0 -0 -0 -0 -0 -0 -0 -0 -0 -0 -0 -0 -0 -0 -0 -0 -0 -0 -0 -0 -0 -0 -0 -0 -0 -0 -0 -0 -0 -0 -0 -0 -0 -0 -0
-0 -0 -0 -0 -0 -0 -0 -0 -0 -0 -0 -0 -0 -0 -0 -0 -0 -0 -0 -0 -0 -0 -0 -0 -0 -0 -0 -0 -0 -0 -0 -0 -0 -0 -0 -0 -0 -0 -0 -0 -0 -0 -0
-0 -0 -0 -0 -0 -0 -0 -0 -0 -0 -0 -0 -0 -0 -0 -0 -0 -0 -0 -0 -0 -0 -0 -0 -0 -0 -0 -0 -0 -0 -0 -0 -0 -0 -0 -0 -0 -0 -0 -0 -0 -0 -0
-0 -0 -0 -0 -0 -0 -0 -0 -0 -0 -0 -0 -0 -0 -0 -0 -0 -0 -0 -0 -0 -0 -0 -0 -0 -0 -0 -0 -0 -0 -0 -0 -0 -0 -0 -0 -0 -0 -0 -0 -0 -0 -0
-0 -0 -0 -0 -0 -0 -0 -0 -0 -0 -0 -0 -0 -0 -0 -0 -0 -0 -0 -0 -0 -0 -0 -0 -0 -0 -0 -0 -0 -0 -0 -0 -0 -0 -0 -0 -0 -0 -0 -0 -0 -0 -0
-0 -0 -0 -0 -0 -0 -0 -0 -0 -0 -0 -0 -0 -0 -0 -0 -0 -0 -0 -0 -0 -0 -0 -0 -0 -0 -0 -0 -0 -0 -0 -0 -0 -0 -0 -0 -0 -0 -0 -0 -0 -0 -0
Wind_Speed
19 20 20 21 22 23 23 23 23 23 23 23 24 24 25 25 25 25 25 25 25 26 26 27 27 27 26 26 26 24 24 23 22 22 21 21 21 20 20 20 20 19 20
21 21 22 22 23 24 24 23 22 21 23 24 24 24 25 25 25 26 26 26 25 26 26 26 27 28 27 25 26 26 25 24 23 23 22 22 22 22 21 21 20 20 20
23 23 24 24 24 24 23 24 25 25 24 25 25 25 26 26 26 26 26 25 25 26 26 26 27 27 27 27 26 26 26 25 23 23 22 24 23 23 22 21 21 20 20
24 24 24 24 24 22 21 22 20 21 19 22 25 26 27 27 27 26 26 26 26 26 27 27 26 27 27 27 27 27 27 27 26 25 24 24 23 24 23 22 21 21 21
24 24 24 23 23 21 21 20 19 20 19 21 22 21 20 21 23 27 27 27 27 26 25 26 26 26 27 28 28 27 27 26 26 26 26 27 25 25 24 24 22 21 21
25 24 24 23 23 21 21 21 20 20 19 19 19 21 21 19 20 19 20 22 25 27 27 27 27 26 27 28 28 28 26 26 25 26 26 27 27 26 26 25 26 23 22
24 23 23 23 22 21 21 20 20 20 19 19 19 20 19 18 18 18 18 18 19 22 23 26 27 27 27 28 28 27 26 26 26 26 26 26 26 26 27 25 25 26 24
24 23 22 22 21 20 20 20 19 19 18 17 18 19 18 18 17 18 17 16 18 19 21 23 25 26 27 27 28 27 25 25 24 25 25 25 25 26 24 26 24 25 25
23 22 22 21 20 19 19 19 18 18 17 17 17 17 17 17 16 16 16 17 18 19 21 22 22 23 24 26 27 26 25 25 24 24 24 25 26 25 25 24 24 25 23
23 21 21 20 19 19 18 18 17 16 16 16 16 16 15 14 15 15 13 18 18 18 19 21 22 23 23 24 25 24 19 15 24 23 23 25 25 24 24 23 23 24 23
22 21 20 19 18 18 17 17 16 15 15 15 15 14 12 12 13 12 15 14 14 16 17 18 19 19 17 19 22 22 18 23 22 22 23 23 25 23 23 23 22 22 23
21 21 19 18 18 17 16 15 14 15 14 14 13 12 11 11 12 10 11 12 12 13 14 14 14 13 12 17 17 17 20 21 21 20 21 22 23 23 22 22 22 22 22
21 19 18 17 17 16 15 14 13 13 12 12 11 11 11 10 10 11 11 12 12 12 12 12 12 12 14 15 15 15 17 17 19 19 19 20 20 21 21 21 21 21 21
20 19 18 17 16 15 14 13 13 12 12 11 11 10 10 10 10 9 10 10 11 11 11 11 12 13 13 13 14 15 14 15 14 15 15 17 18 20 20 20 21 21 21
19 18 17 16 15 14 14 13 12 11 11 10 10 10 9 9 8 8 8 8 9 10 10 11 11 11 12 13 14 14 13 13 13 13 13 13 14 15 18 19 20 21 21
18 17 16 16 15 14 13 12 11 11 10 9 9 9 8 8 7 7 7 7 7 8 8 9 11 11 12 11 12 13 13 12 12 11 13 13 12 14 15 16 18 20 22
18 17 16 15 14 14 13 12 11 10 9 8 8 7 7 7 6 6 5 5 6 7 7 7 8 9 10 11 11 11 12 12 12 11 12 12 12 12 13 16 17 19 21
18 16 15 14 14 13 12 11 10 9 8 8 7 6 6 5 5 4 4 4 5 6 6 7 8 9 9 10 10 11 11 11 10 10 11 12 12 13 11 12 15 18 21
18 16 15 14 14 13 12 11 10 9 8 7 6 6 5 4 4 3 3 4 5 6 6 7 8 9 10 10 10 10 10 10 10 10 10 10 11 13 15 14 13 16 18
18 16 15 14 13 13 12 11 10 9 8 7 5 4 4 4 3 3 3 4 5 7 7 8 8 10 11 12 12 11 10 9 9 10 11 11 10 11 12 14 15 15 14
18 16 15 14 14 13 12 11 10 9 7 6 4 3 2 3 3 4 5 5 6 7 7 8 10 11 13 12 15 16 12 10 8 8 10 10 10 10 11 12 14 17 18
20 18 16 15 14 14 12 12 11 9 7 5 4 3 2 2 2 4 4 6 7 9 9 9 10 12 14 14 16 20 21 21 12 11 10 10 10 10 10 10 12 13 15
20 19 18 17 15 15 14 12 11 9 6 5 4 4 3 3 3 3 4 5 6 8 10 11 10 11 14 13 11 16 21 19 22 14 11 11 11 11 12 11 11 12 13
20 19 18 18 17 16 15 14 12 9 6 5 4 6 7 6 5 5 6 6 7 9 10 10 10 11 12 14 14 9 12 16 20 22 14 12 11 11 12 13 14 13 14
18 18 17 17 16 16 15 14 12 9 5 4 4 5 7 9 9 9 8 9 9 10 10 11 11 12 12 13 14 15 14 14 13 15 19 18 14 12 13 13 14 15 15
16 17 16 16 15 14 13 12 10 7 4 4 6 8 9 10 11 11 11 10 10 11 11 12 12 12 12 12 13 13 14 16 16 15 16 18 18 19 18 16 16 16 17
Wind_Direction
76 68 63 65 59 55 55 54 36 28 24 15 19 14 20 17 13 14 13 12 10 15 13 13 15 14 9 9 9 4 2 0 356 351 350 353 352 352 345 339 336 337 336
84 78 79 76 81 74 69 39 33 15 23 23 24 19 19 20 18 20 17 16 13 14 14 13 17 19 12 4 8 10 9 4 3 355 358 356 351 350 345 344 338 334 334
90 89 97 93 88 96 94 69 69 67 43 33 30 26 29 26 22 21 20 15 13 15 16 18 21 14 13 10 6 7 13 11 5 3 2 3 355 348 344 338 339 339 335
103 106 102 108 108 113 111 107 115 106 110 93 78 56 46 42 36 29 24 24 16 14 22 20 18 18 13 12 9 13 23 24 15 9 10 357 352 355 352 346 339 337 332
118 118 108 121 119 123 117 118 119 111 112 101 93 97 99 95 82 56 31 22 28 15 14 16 14 17 13 11 12 16 20 24 26 24 27 21 8 4 358 359 354 341 343
125 124 119 124 119 122 118 115 111 110 113 108 107 96 96 100 97 97 92 82 65 43 33 28 22 16 14 10 9 15 26 27 30 25 26 21 27 35 32 19 7 8 351
127 120 118 124 122 119 116 114 111 109 110 105 105 100 102 102 100 98 97 95 90 78 71 51 39 33 26 16 13 17 23 26 22 22 20 21 20 19 20 25 15 12 15
128 130 116 125 126 121 117 115 113 112 116 117 110 106 103 99 102 98 99 100 91 83 74 62 52 41 32 23 17 20 23 15 27 23 22 19 14 10 18 14 17 12 9
132 136 133 126 127 129 119 118 114 112 112 112 107 108 103 101 105 100 96 88 81 75 65 57 57 54 48 37 25 25 29 26 22 22 17 12 3 7 8 9 11 8 13
140 142 138 135 131 127 118 117 118 115 114 113 109 106 106 110 99 99 106 75 72 69 63 52 46 40 35 33 33 39 57 65 25 23 20 11 9 11 10 8 3 356 1
148 147 144 142 139 135 133 112 120 122 120 118 115 114 127 121 109 109 82 86 84 73 68 61 53 49 55 47 36 36 50 24 27 25 20 15 8 13 12 10 7 5 359
151 151 148 146 143 139 138 127 130 117 127 122 123 119 127 115 103 118 98 87 85 75 73 68 68 70 69 43 39 42 28 23 22 22 20 16 10 9 13 10 9 6 2
153 151 148 145 144 138 139 132 130 127 124 126 127 124 121 113 105 96 87 82 80 75 75 64 58 57 47 40 39 36 30 26 18 16 15 14 12 9 5 6 5 4 1
154 152 148 147 147 146 142 139 137 133 126 125 120 117 120 114 106 97 85 74 68 62 62 63 54 41 37 35 28 25 28 24 26 21 18 14 7 3 1 0 358 356 354
156 152 151 147 149 145 145 141 139 137 132 133 122 120 118 114 108 97 91 80 69 60 53 48 44 42 35 25 19 18 16 16 14 12 10 12 11 6 358 353 350 350 348
159 153 153 152 151 148 147 144 140 136 133 133 129 128 120 120 108 98 90 80 72 62 53 45 36 29 24 24 19 11 9 7 7 5 359 358 358 356 356 354 348 342 339
163 158 156 153 151 153 150 149 143 143 135 134 130 129 129 125 120 104 90 75 65 55 46 39 33 27 21 17 14 10 5 1 357 356 353 352 350 347 344 342 341 339 335
163 159 154 152 154 150 150 142 145 141 135 134 126 120 122 118 111 101 84 65 52 44 37 30 25 19 15 12 9 6 3 359 354 350 348 346 344 343 341 338 337 335 331
164 157 155 152 153 153 149 148 144 143 139 133 122 113 104 97 93 80 62 45 35 28 23 18 15 12 7 5 2 360 356 351 348 347 342 340 338 336 337 337 333 331 331
163 159 152 151 151 149 145 148 148 148 144 140 132 118 101 76 67 53 38 25 21 12 9 7 3 2 359 358 355 350 346 341 342 343 342 339 336 333 331 329 332 331 328
164 158 156 151 149 147 146 145 144 143 140 136 121 123 92 67 44 29 17 13 11 1 359 359 357 353 352 354 351 350 351 344 339 346 346 342 337 333 330 327 325 326 327
164 161 157 155 152 149 146 144 146 136 129 122 83 80 68 43 22 13 7 2 360 356 353 351 348 348 348 352 352 350 354 358 358 355 351 346 339 336 328 322 321 321 321
164 161 161 157 153 152 150 143 138 143 125 95 67 47 32 21 6 353 347 346 347 346 345 346 344 341 341 346 349 350 351 354 353 348 348 342 338 334 328 324 318 316 315
161 157 156 155 156 155 153 151 150 142 130 99 71 41 22 12 356 346 336 331 330 336 335 336 337 333 336 336 341 334 332 339 347 345 350 342 333 328 324 324 321 317 313
151 150 150 149 150 150 151 154 155 157 142 105 62 29 12 2 353 344 334 331 327 327 326 326 329 327 327 327 329 333 333 333 327 327 328 334 329 326 325 319 316 314 312
139 142 142 146 146 146 147 150 155 150 113 55 29 12 1 354 348 339 334 329 326 324 320 321 320 318 317 317 321 322 322 330 333 326 319 320 319 320 321 321 318 313 312